Flag for Germany Weather past 2 weeks in Sankt Ingbert, Saarland, Germany

Now
53 °F

Thunderstorms. Low clouds.


Feels Like: 53 °F
Forecast: 41 / 61 °F
Wind: 1 mph from Northeast

Location: Saarbruecken / Ensheim

Current Time: Aug 23, 2014 at 9:09:36 PM

Latest Report: Aug 23, 2014 at 8:00 PM


Visibility: 16 mi

Pressure: 30.00 "Hg

Humidity: 93%

Dew point: 51 °F

Location of Sankt IngbertLocation

Historic Weather in Sankt Ingbert — Graph

°F

Sankt Ingbert temperature yesterday

Maximum temperature yesterday: 66 °F (at 6:00 PM)
Minimum temperature yesterday: 45 °F (at 4:00 AM)
Average temperature yesterday: 56 °F

Past Weeks' High & Low Weather Summary

 TemperatureHumidityPressure
High78 °F (Aug 10, 4:00 PM)99% (Aug 19, 6:00 AM)30.16 "Hg (Aug 19, 6:00 AM)
Low44 °F (Aug 20, 4:00 AM)44% (Aug 19, 4:00 PM)29.65 "Hg (Aug 13, 3:00 PM)
Average59 °F79%29.94 "Hg
* Reported Aug 8 8:00 PM — Aug 23 8:00 PM, Sankt Ingbert, Weather by CustomWeather, © 2014

Note: Actual official high and low records may vary slightly from our data, if they occured in-between our weather recording intervals... More about our weather records

Advertising

Sankt Ingbert weather history for previous 24 hours

 ConditionsComfort  
Time TempWeatherWind HumidityBarometerVisibility
8:00 PM
Aug 23
53 °FThunderstorms. Low clouds.1 mph93%30.00 "Hg16 mi
7:00 PM56 °FLow clouds.2 mph89%29.99 "Hg5 mi
6:00 PM56 °FOvercast.2 mph88%29.99 "Hg16 mi
5:00 PM53 °FSprinkles. Low clouds.5 mph95%30.00 "Hg12 mi
4:00 PM60 °FOvercast.5 mph78%29.97 "Hg25 mi
3:00 PM58 °FLow clouds.3 mph90%29.98 "Hg19 mi
2:00 PM56 °FLow clouds.3 mph92%29.99 "Hg19 mi
1:00 PM55 °FLow clouds.3 mph96%30.00 "Hg11 mi
12:00 PM55 °FLight rain. Low clouds.5 mph94%30.00 "Hg11 mi
11:00 AM55 °FLow clouds.5 mph93%30.00 "Hg12 mi
10:00 AM54 °FLow clouds.5 mph95%29.99 "Hg12 mi
9:00 AM52 °FLow clouds.3 mph96%29.99 "Hg7 mi
8:00 AM53 °FDrizzle. Overcast.2 mph86%29.99 "Hg12 mi
7:00 AM52 °FOvercast.2 mph85%29.98 "Hg16 mi
6:00 AM53 °FOvercast.3 mph84%29.98 "Hg19 mi
5:00 AM51 °FPassing clouds.2 mph88%29.98 "Hg19 mi
4:00 AM51 °FPassing clouds.2 mph85%29.98 "Hg19 mi
3:00 AM51 °FPassing clouds.2 mph85%29.98 "Hg19 mi
2:00 AM54 °FPassing clouds.2 mph76%29.98 "Hg19 mi
1:00 AM56 °FPassing clouds.2 mph71%29.97 "Hg22 mi
12:00 AM56 °FPassing clouds.2 mph74%29.96 "Hg25 mi
11:00 PM
Aug 22
58 °FPassing clouds.2 mph68%29.96 "Hg25 mi
10:00 PM59 °FOvercast.2 mph66%29.96 "Hg28 mi
9:00 PM60 °FOvercast.3 mph59%29.94 "Hg31 mi
Weather by CustomWeather, © 2014

See weather overviewHow to use our weather pages